GFSCGP_sfc_wetblb_021.txt.gz
Wetbulb
41.93 36.54 35.30 39.02 39.97 39.37 36.36 35.16 33.92 39.85 42.23 39.91 39.99 40.60 42.23 43.98 41.70 40.83 43.94 44.65 43.43 45.15 47.45 44.37 45.81 45.64 45.07 42.67 40.78 39.79 39.21 39.16 39.40 37.76 36.53 35.37 36.04 34.31 33.19 33.70 35.04 34.56 34.28 34.04
38.63 35.70 40.84 41.50 40.64 39.76 38.08 36.57 35.20 39.18 41.17 38.78 37.94 38.73 42.53 41.41 43.34 44.39 43.89 43.28 44.39 45.37 42.80 43.85 42.99 43.53 43.43 40.76 40.41 39.76 39.48 38.83 39.57 39.09 38.57 35.37 34.63 33.59 33.76 33.95 34.01 34.44 33.45 33.05
37.53 38.95 43.52 41.91 40.15 38.29 38.38 35.90 36.94 36.44 38.72 37.19 35.63 34.07 37.29 40.77 43.00 43.89 45.55 45.68 45.97 45.74 42.09 42.28 41.35 42.55 42.11 40.35 39.74 39.68 39.34 38.77 39.47 38.61 37.18 33.57 33.64 32.68 32.12 32.25 32.61 32.93 33.08 32.62
37.38 42.15 40.98 38.41 37.87 39.83 36.13 39.09 38.36 36.59 32.70 31.61 34.88 30.46 34.79 38.38 39.56 40.86 43.71 43.79 44.64 42.86 41.66 41.78 41.22 41.37 40.70 40.75 40.38 40.08 39.27 38.34 39.00 37.69 36.96 36.15 35.04 34.16 35.48 35.29 33.36 31.66 32.46 31.62
36.98 36.82 36.78 37.29 39.28 39.37 38.54 38.89 37.19 34.40 31.89 30.16 32.00 29.46 32.49 38.24 36.07 39.03 41.97 43.62 44.14 43.00 40.44 40.06 41.01 42.32 42.03 40.57 39.82 39.47 38.67 38.14 38.38 37.05 37.79 36.51 34.84 34.99 29.93 30.09 31.08 31.17 30.82 31.09
37.13 38.46 38.78 38.63 37.23 38.70 38.03 34.96 33.59 31.46 29.65 26.36 30.77 31.56 31.81 33.16 37.63 38.33 42.41 43.51 43.72 43.39 40.44 40.92 41.93 41.86 40.03 38.37 38.90 38.11 37.31 37.36 37.69 37.27 37.17 36.14 35.16 30.93 28.91 30.11 30.67 30.76 30.10 29.20
34.10 36.51 38.75 39.46 35.52 35.49 35.16 32.21 24.88 22.58 21.05 25.60 32.97 29.29 35.97 37.35 38.38 40.04 41.52 42.54 43.36 40.89 40.04 38.11 37.76 39.21 38.07 36.77 37.17 37.74 36.81 36.64 37.09 36.84 36.33 35.35 35.21 32.11 31.48 30.43 31.21 29.62 28.71 27.93
29.63 30.76 35.31 38.02 38.70 34.72 32.38 35.09 25.43 18.28 22.00 29.17 27.77 25.36 32.09 39.98 42.44 41.33 41.90 42.49 40.34 40.05 39.92 39.42 39.84 39.42 38.18 37.96 36.59 37.38 36.23 36.66 36.51 36.26 36.03 35.30 34.11 33.17 33.07 31.07 31.27 30.54 30.19 29.37
30.52 30.87 34.86 35.61 36.07 38.57 32.05 29.93 36.06 28.88 15.72 20.12 31.63 32.73 37.06 37.21 38.66 38.62 39.29 37.24 38.25 38.91 38.59 38.61 37.17 37.66 37.28 37.15 36.89 36.85 36.32 36.95 36.29 36.01 35.96 34.65 33.83 33.58 32.66 30.79 29.96 30.38 29.08 28.18
36.57 31.29 35.89 33.93 33.85 33.68 33.62 34.94 27.56 27.82 19.28 16.26 29.14 29.55 33.29 36.56 38.99 40.29 37.37 37.19 37.32 37.83 38.26 38.32 37.71 38.23 37.11 36.90 37.29 37.01 37.26 36.45 36.34 35.59 35.70 34.47 33.43 33.43 32.78 29.78 28.83 27.62 27.39 26.66
36.98 34.65 34.77 31.94 30.92 31.87 29.88 30.46 31.74 31.46 29.08 27.04 25.10 30.28 34.41 35.63 36.58 37.99 38.29 37.65 36.91 37.63 37.52 37.92 38.87 38.26 36.43 35.67 36.06 36.23 35.76 35.22 35.01 33.70 33.95 33.36 32.20 31.38 29.74 29.44 28.78 27.42 26.38 25.34
37.30 33.98 29.26 32.19 35.46 35.17 35.10 34.95 35.22 29.42 27.66 27.35 28.94 30.41 42.04 40.12 37.20 38.22 38.34 38.58 38.26 38.33 39.03 38.38 37.95 36.94 35.08 36.40 35.85 35.30 35.27 34.68 34.67 34.26 32.43 31.77 29.98 28.43 28.35 28.14 26.60 25.25 25.17 23.99
38.45 31.84 27.80 28.87 34.16 32.03 31.51 33.16 34.73 34.54 31.11 28.43 25.12 28.09 42.03 41.23 38.26 36.31 37.11 37.32 37.78 38.91 40.12 39.30 37.47 36.41 37.90 36.87 35.88 35.54 35.10 34.69 34.30 33.52 30.86 30.23 28.34 27.85 27.95 26.70 24.58 24.47 23.22 22.53
41.04 33.21 31.12 28.13 31.99 34.99 31.32 32.39 32.44 33.29 28.67 29.00 28.96 31.07 36.40 39.09 40.34 42.14 42.99 43.72 44.34 41.40 39.67 39.10 38.78 36.61 35.43 35.69 35.86 35.58 35.08 34.70 33.42 32.02 30.28 29.21 28.35 28.18 27.24 24.59 24.27 23.63 23.47 21.80
38.76 31.22 33.18 33.75 34.92 35.68 34.05 33.90 34.56 32.07 33.06 29.46 31.46 31.52 35.05 37.95 39.21 40.69 42.44 42.94 40.64 40.73 39.92 39.24 38.43 38.32 37.73 36.81 35.99 35.77 35.76 33.25 32.23 31.13 29.94 29.29 28.41 27.06 23.92 23.17 23.34 22.76 21.68 20.88
37.74 32.34 34.47 31.72 33.80 33.44 31.94 33.80 33.85 33.88 33.73 33.56 33.80 33.47 40.57 42.19 43.02 42.40 43.00 43.27 41.40 41.73 42.66 42.57 39.03 38.60 36.37 35.07 36.73 34.75 34.78 31.93 31.49 30.87 29.39 28.55 25.63 23.56 22.91 23.09 22.16 21.14 20.20 19.48
35.40 32.85 31.71 27.89 32.42 31.47 27.60 32.31 33.26 33.92 35.53 35.23 30.75 35.46 39.91 39.36 40.42 41.15 41.94 42.85 42.07 42.77 42.57 39.76 38.74 38.24 36.94 34.17 34.39 32.95 33.19 30.10 30.31 30.12 28.59 25.51 24.00 22.41 22.33 21.81 20.69 19.99 19.27 19.35
34.06 32.80 32.14 29.16 31.07 21.94 31.74 36.75 35.99 34.31 35.81 37.07 37.05 38.51 40.06 40.51 42.06 42.84 43.66 42.39 42.47 42.59 40.74 38.97 37.02 37.89 35.24 34.51 32.32 31.77 27.77 28.81 29.15 28.25 25.91 23.23 22.48 21.82 20.77 19.78 19.47 18.64 18.46 17.94
37.78 34.14 30.02 27.27 27.06 29.87 32.07 34.54 34.06 32.24 32.13 37.57 36.52 38.34 40.19 41.43 41.26 40.85 42.39 39.31 40.58 41.42 40.44 38.99 37.00 35.88 35.43 34.14 31.80 27.90 26.06 26.87 26.86 25.31 24.34 22.24 21.98 20.50 19.22 18.60 17.98 17.66 17.51 17.12
36.71 36.72 31.86 30.12 25.78 23.37 29.83 31.52 36.58 38.26 28.70 32.56 32.73 33.04 34.08 34.60 31.55 35.47 37.41 36.86 36.29 36.75 34.11 33.32 33.27 32.40 31.54 26.32 25.01 25.31 24.47 24.85 25.09 24.63 23.67 21.84 21.44 19.88 18.52 18.26 17.10 18.18 18.40 16.60
25.72 29.61 27.23 27.69 25.99 29.74 28.87 31.47 35.35 26.73 26.20 32.14 33.18 33.35 34.10 32.23 33.97 35.71 35.56 34.95 35.43 34.47 33.22 30.75 29.37 26.99 25.84 23.71 23.45 22.47 21.41 23.25 22.57 22.25 20.42 19.76 20.08 18.96 18.76 17.45 17.25 17.56 17.19 17.04
19.80 17.47 20.69 22.75 22.72 22.92 29.74 30.62 25.59 29.55 32.64 32.25 31.78 31.27 30.63 32.20 32.87 32.99 32.97 33.02 32.60 32.76 34.03 31.44 25.70 24.88 23.24 24.11 24.59 22.54 20.89 20.49 19.35 19.02 18.13 18.19 17.92 17.88 17.19 15.32 14.58 16.54 15.79 14.16
16.83 22.30 16.67 18.16 19.30 26.00 30.57 25.90 28.99 32.24 32.03 29.33 28.90 29.27 30.85 30.19 29.89 30.73 30.85 31.59 32.04 32.99 32.86 33.06 26.83 25.19 21.41 22.45 24.39 22.78 21.27 20.29 18.66 17.38 16.65 16.06 16.06 15.26 15.50 14.80 13.90 12.98 13.34 12.47
18.11 22.90 18.41 16.70 22.05 22.72 25.37 28.84 30.77 29.31 27.29 27.98 27.27 26.53 27.71 27.62 28.58 29.04 29.86 30.90 31.28 32.32 32.70 33.84 33.60 29.50 26.08 22.92 22.99 25.41 21.28 20.09 18.54 17.07 15.69 13.90 13.51 12.64 12.84 14.48 13.50 12.76 11.78 11.61
19.43 20.83 15.56 16.23 20.66 22.90 25.20 26.64 25.16 25.49 24.72 23.42 23.06 22.79 24.24 25.48 25.75 26.79 27.08 27.79 28.89 29.41 30.82 31.96 31.55 28.74 27.61 23.79 22.38 22.68 20.27 19.41 17.64 16.23 13.48 13.31 13.67 11.84 11.63 13.24 12.97 12.76 13.94 14.85
21.47 19.04 16.25 14.49 22.83 19.10 20.89 22.24 23.22 17.73 17.41 18.45 18.93 19.34 20.23 20.15 19.80 21.06 21.27 23.46 25.43 26.49 28.42 29.23 27.89 28.53 29.31 27.92 24.11 22.19 20.44 18.54 17.42 15.13 13.39 13.01 12.45 11.99 11.87 11.20 12.06 17.75 17.17 19.82

GFSCGP_sfc_wetblb_024.txt.gz
Wetbulb
39.88 35.40 33.54 38.12 38.34 39.38 33.31 32.71 32.41 36.62 39.31 37.33 37.12 39.18 41.68 44.28 42.16 40.16 41.30 43.36 43.42 41.39 46.49 46.38 43.77 44.38 43.74 43.32 41.84 41.03 40.08 39.60 39.80 38.08 36.86 36.66 36.85 35.85 33.61 33.82 35.43 34.21 33.95 33.50
36.13 33.50 39.19 39.49 38.30 37.24 36.48 35.17 35.10 38.76 40.66 36.61 37.66 38.07 41.36 42.09 43.59 44.30 43.40 43.91 44.02 45.43 46.52 46.61 41.70 41.52 42.92 42.83 41.80 40.77 40.22 39.11 39.95 39.97 39.79 37.98 37.85 33.06 36.30 35.19 34.58 34.88 33.80 32.85
36.43 37.87 41.26 39.21 36.96 36.23 35.20 34.12 35.53 35.02 36.55 35.66 34.18 35.13 36.10 39.02 42.71 44.55 44.91 45.11 45.63 44.94 45.27 46.72 40.44 40.36 42.30 42.21 40.61 39.96 40.00 39.16 40.20 39.95 38.05 32.64 32.90 31.70 31.13 32.81 33.35 33.59 33.52 32.23
35.41 40.46 39.42 36.80 35.92 37.63 34.33 38.27 37.72 36.03 31.14 30.14 33.62 29.58 34.01 36.54 38.42 40.16 42.16 43.29 44.23 45.08 45.85 46.06 40.37 38.96 40.59 42.02 40.92 40.30 40.08 39.27 39.94 38.51 37.17 36.64 35.71 35.29 36.23 35.85 33.04 31.40 32.40 31.60
35.20 35.29 35.21 35.38 38.13 38.21 37.00 37.33 35.50 32.75 29.72 28.18 30.30 27.66 32.13 37.08 36.78 38.53 41.84 42.28 43.66 45.26 43.93 43.76 41.14 41.62 41.53 41.24 39.78 39.83 39.30 38.78 39.44 37.59 37.60 36.89 36.06 36.33 32.27 31.13 30.50 30.91 30.83 31.14
36.52 37.56 37.69 37.27 37.41 37.34 36.70 34.12 32.91 29.86 28.93 27.31 30.89 30.58 30.61 31.92 36.57 37.99 41.32 43.17 43.87 44.75 45.91 41.19 40.23 39.51 38.31 37.90 38.68 38.94 38.05 37.72 38.19 36.67 36.73 36.52 36.09 31.86 29.86 30.10 31.14 30.53 30.46 30.02
32.00 34.18 36.56 38.34 33.99 34.67 34.74 31.41 24.33 21.68 20.72 24.98 31.40 28.23 35.46 35.87 37.79 39.34 40.60 41.20 43.00 44.13 44.52 37.45 38.01 38.02 38.02 36.79 37.22 37.52 37.09 36.32 36.71 35.70 36.40 36.24 36.00 33.43 32.91 31.62 32.00 30.49 29.47 28.91
27.88 29.91 33.94 36.08 37.05 33.57 32.59 33.43 24.88 16.68 22.50 29.13 26.45 25.16 32.99 38.73 40.62 40.60 40.77 41.96 42.50 39.68 38.95 39.41 38.48 38.67 37.33 37.12 36.78 36.99 36.17 36.52 36.09 35.42 36.29 36.46 36.26 34.92 33.83 32.46 32.76 31.95 31.51 31.06
28.14 30.15 33.94 35.46 35.45 37.50 30.69 28.66 36.03 25.51 12.81 17.91 28.05 32.15 37.74 35.85 37.65 38.18 39.08 39.73 36.76 37.73 38.29 38.77 36.85 36.69 36.61 36.84 36.89 37.08 35.81 36.83 36.07 35.90 36.23 35.56 35.13 34.62 33.55 32.16 31.94 31.99 31.27 30.58
35.31 30.40 35.61 32.51 33.19 32.77 33.52 34.62 26.86 26.20 17.95 14.93 25.52 26.81 31.90 36.50 38.44 38.40 37.66 37.77 37.91 37.63 37.54 37.95 36.85 36.21 35.54 35.68 36.04 35.79 36.20 36.45 35.98 35.57 35.79 35.34 34.41 34.37 33.81 30.57 29.85 29.87 29.51 28.62
36.49 33.87 33.23 31.31 30.72 33.35 28.77 28.68 29.37 30.12 29.07 26.12 24.83 29.45 40.21 38.10 36.59 35.25 37.97 38.01 37.53 37.41 37.20 37.69 38.11 36.91 35.60 34.51 34.53 35.13 34.91 35.30 34.95 34.57 35.24 35.02 33.51 32.71 32.99 30.07 29.74 28.53 27.66 27.40
37.82 34.72 30.32 32.64 37.03 33.15 32.65 33.09 34.00 28.96 27.29 29.66 30.00 30.28 42.06 42.03 41.51 41.42 41.86 38.77 38.02 37.22 37.90 38.01 37.97 37.28 35.95 35.33 34.86 35.53 35.74 35.27 35.75 35.33 34.05 33.49 32.13 31.07 31.41 29.45 28.81 27.57 27.24 26.80
38.08 34.12 29.22 29.73 33.22 35.82 33.44 35.44 34.47 34.94 33.48 28.98 26.24 29.24 42.08 42.08 41.19 41.17 36.48 38.12 40.60 39.07 37.81 38.01 38.64 38.06 37.69 37.65 36.87 35.90 35.90 35.45 35.34 33.25 32.01 30.70 29.51 29.66 30.35 29.76 28.57 27.62 26.66 25.85
42.14 36.73 32.96 28.82 32.59 34.43 29.84 32.31 34.59 33.21 28.54 29.23 29.18 31.32 36.53 39.23 40.01 41.73 41.96 42.68 42.97 41.71 42.06 44.23 41.96 39.36 38.78 38.69 37.35 35.97 35.41 35.03 33.01 32.16 31.44 30.90 30.48 30.39 30.38 29.54 26.96 26.84 25.96 24.45
38.79 32.63 34.25 34.72 35.40 35.71 35.17 34.48 34.92 32.77 32.65 28.54 31.67 32.21 35.81 38.67 40.10 42.07 42.48 43.02 40.37 40.74 41.03 41.23 40.05 40.22 38.43 36.87 36.50 35.53 36.08 34.56 33.43 32.48 31.53 31.70 31.28 30.39 29.56 26.91 25.49 25.31 24.64 24.29
33.54 29.51 32.68 30.78 34.41 33.31 31.37 33.35 34.00 33.65 34.12 34.19 34.54 33.85 40.67 41.95 42.90 42.10 42.94 43.47 42.74 43.09 43.79 44.16 42.12 40.43 37.84 39.31 38.73 34.74 35.68 34.23 32.92 32.41 31.40 31.71 29.92 28.40 27.27 25.69 24.89 23.91 23.69 22.76
29.12 28.96 26.66 22.80 30.21 30.70 27.10 32.33 32.98 33.61 35.30 34.86 30.90 36.07 40.18 39.44 40.47 40.80 41.15 39.96 36.52 35.38 35.28 36.95 38.57 38.91 37.40 36.63 34.38 34.02 34.28 31.64 30.74 31.79 31.59 29.74 28.07 26.77 24.95 24.41 23.92 22.84 21.94 21.58
27.15 25.91 25.58 22.18 25.67 17.06 29.99 36.85 36.46 34.10 35.37 36.98 36.00 32.27 33.06 34.04 36.74 38.68 35.09 33.56 33.78 34.74 34.65 34.51 34.24 35.16 36.23 34.50 33.50 32.10 28.52 28.79 30.16 30.87 29.89 27.63 25.82 24.84 23.54 22.60 22.17 22.05 21.11 20.32
29.37 26.35 24.59 21.86 22.92 27.77 31.18 31.60 29.14 29.78 29.20 29.92 28.80 29.20 29.04 30.14 32.85 31.79 33.45 33.54 33.22 33.57 34.59 34.18 32.15 32.58 33.19 32.69 29.87 30.03 26.64 27.26 27.27 27.53 27.95 25.83 25.38 23.39 21.37 21.07 20.95 20.88 20.21 19.64
26.44 27.30 25.53 23.08 18.84 17.10 22.38 27.84 28.10 28.99 24.82 24.96 29.20 27.59 27.42 27.28 20.70 25.52 31.61 32.24 32.39 33.78 33.54 32.04 32.44 30.97 31.98 33.03 26.27 26.32 25.00 24.12 24.55 24.67 24.32 22.66 23.83 22.86 21.48 21.72 20.81 20.87 20.35 19.48
7.40 8.62 10.32 15.00 15.80 20.92 23.31 24.70 27.93 21.94 17.13 24.82 28.09 26.60 26.21 23.61 26.24 29.17 31.38 31.38 32.13 32.28 32.41 33.74 32.52 31.07 29.64 27.73 24.81 24.56 22.37 22.25 21.91 21.32 20.71 21.03 22.13 22.41 21.91 21.38 20.49 19.30 19.32 18.70
11.84 9.22 12.25 13.36 7.87 8.84 24.21 23.20 14.91 21.12 26.95 28.47 26.63 26.33 24.87 25.78 26.63 27.69 28.38 28.67 29.87 30.20 31.06 32.02 31.66 31.90 32.60 26.11 22.52 24.39 21.64 21.84 19.55 19.42 19.20 19.78 19.51 20.59 20.49 19.19 18.96 18.12 17.43 16.67
9.08 16.05 13.58 15.15 14.50 22.85 24.89 24.56 26.62 28.99 23.36 24.19 24.50 24.92 23.63 22.60 22.95 24.69 25.39 26.66 27.70 28.61 29.17 30.46 30.06 30.37 31.67 28.64 24.23 21.71 23.62 19.47 18.43 17.24 19.94 19.52 19.75 19.52 18.93 17.24 17.45 16.90 17.31 16.67
14.18 20.81 12.57 12.75 18.19 21.26 23.46 25.64 27.28 26.05 24.04 24.11 22.83 20.43 21.13 20.39 22.01 21.63 21.47 22.42 22.79 23.68 23.96 25.95 26.98 27.06 28.00 31.56 26.23 25.76 24.00 20.65 19.98 21.07 20.35 19.46 19.06 18.24 18.19 17.76 17.61 16.00 14.91 15.02
17.73 18.83 14.94 14.69 20.03 21.73 23.30 24.28 22.91 22.80 21.63 20.30 20.53 19.69 19.39 18.44 17.35 18.52 18.20 18.59 20.31 21.06 21.59 22.61 23.37 24.14 24.87 27.24 29.57 29.71 25.24 21.86 20.89 21.25 19.62 18.07 18.98 17.32 17.03 17.30 16.78 17.06 17.13 17.70
21.34 18.91 15.74 13.58 22.09 21.58 21.82 23.99 21.43 17.23 16.13 16.37 16.51 16.51 17.34 17.01 16.09 16.48 16.09 17.67 17.30 16.62 16.95 15.52 15.62 17.15 18.89 21.55 23.71 27.99 27.67 22.29 21.73 19.35 17.77 16.79 16.76 15.40 15.79 15.76 15.06 21.61 20.47 21.96

GFSCGP_sfc_wetblb_030.txt.gz
Wetbulb
37.34 33.62 32.14 36.97 35.58 34.84 30.06 29.51 28.70 33.41 37.82 33.27 35.60 36.52 38.85 41.30 41.47 41.63 42.42 42.60 42.88 44.31 47.01 46.88 44.10 41.79 41.47 41.34 41.71 41.10 39.51 40.96 40.68 40.04 38.31 37.53 38.00 37.74 37.11 38.07 37.52 36.23 36.28 34.85
33.55 30.64 36.79 36.16 35.30 34.64 33.32 31.77 31.84 35.67 38.38 33.18 33.97 34.89 38.51 40.23 40.96 42.52 42.97 43.60 44.11 43.96 44.37 45.38 42.88 40.22 40.14 41.92 41.34 41.09 40.46 40.25 40.33 41.21 40.76 40.50 40.43 38.56 38.61 37.63 36.63 36.46 35.24 34.46
34.41 35.47 38.16 36.44 33.73 33.55 30.91 29.78 32.93 31.82 33.72 33.05 31.33 31.06 33.31 37.20 39.29 41.72 43.01 44.01 44.20 43.63 44.26 45.17 42.60 40.27 38.39 38.73 39.14 40.92 41.05 40.47 40.48 41.21 40.13 33.11 32.91 31.77 32.36 32.99 34.25 35.33 34.85 34.13
33.33 36.98 36.35 32.66 32.96 34.48 32.00 35.25 34.69 33.14 28.75 25.84 31.77 26.01 30.71 38.44 38.91 37.17 40.29 40.90 40.41 40.34 41.92 42.46 41.85 40.56 37.78 39.56 39.79 41.22 41.22 40.48 40.10 40.47 39.21 38.30 38.73 36.78 36.70 37.36 36.91 35.30 34.43 33.38
33.68 33.08 32.33 32.28 34.61 35.05 33.14 34.51 32.66 29.82 27.37 25.75 25.53 24.02 29.88 32.73 32.89 36.42 38.26 39.25 39.69 40.90 39.94 40.39 41.06 41.11 40.84 39.33 38.86 40.50 40.42 40.04 39.59 39.73 39.76 38.51 39.06 39.72 36.06 37.36 35.29 33.87 33.50 33.31
33.62 34.81 35.42 35.38 34.73 35.83 34.78 31.68 30.34 27.13 26.75 22.85 29.05 27.63 29.22 30.81 34.51 34.64 36.85 39.62 40.09 39.89 40.00 39.27 39.11 38.76 38.80 38.12 37.24 37.05 37.63 38.54 38.51 38.93 39.32 38.05 38.88 37.60 33.25 33.30 33.51 33.03 32.81 32.32
29.19 32.16 34.26 35.90 31.79 31.89 32.12 28.91 23.31 21.04 19.79 24.54 27.15 26.03 33.67 34.67 37.41 37.35 40.29 40.60 38.52 38.48 38.39 38.48 38.40 39.59 38.28 37.38 37.05 35.68 35.58 36.48 36.94 37.51 38.18 37.93 38.71 36.61 35.06 33.85 34.18 32.25 32.01 31.63
27.58 30.20 32.42 34.25 34.87 32.68 29.92 30.29 22.98 15.78 18.69 27.59 25.57 26.81 33.87 36.87 38.11 38.50 36.95 36.42 37.89 38.12 37.18 37.39 37.51 37.20 37.62 36.80 35.28 34.21 34.27 34.87 35.13 35.70 36.39 36.17 37.31 36.59 35.88 33.79 34.32 33.62 33.47 33.43
26.68 28.03 31.61 33.37 33.19 35.06 28.60 27.68 31.61 25.72 16.14 17.08 29.12 32.64 38.70 37.70 36.42 34.66 36.22 35.19 37.40 36.72 37.31 37.71 37.38 37.04 37.48 36.70 34.91 33.50 33.44 33.82 33.84 34.16 35.26 35.51 36.28 35.42 35.22 32.90 32.74 33.20 33.17 32.99
33.42 27.84 32.30 31.25 32.87 31.97 31.65 32.13 25.53 23.98 19.86 15.65 25.88 25.72 31.19 35.92 36.85 37.31 36.27 35.93 36.50 37.30 40.75 45.44 40.56 39.01 36.96 36.80 34.37 33.22 33.13 33.26 33.12 33.05 34.34 35.35 35.08 35.76 34.73 32.22 31.74 31.87 32.07 31.47
35.31 33.20 32.80 32.44 29.12 30.12 27.87 29.03 28.17 29.01 28.26 24.47 23.10 27.21 38.86 36.46 35.77 35.25 38.43 40.45 38.32 38.64 40.23 40.01 36.88 37.51 37.21 35.69 33.96 32.96 32.04 32.19 32.42 32.64 33.61 33.80 33.97 34.33 32.37 31.34 31.82 32.32 32.06 31.28
36.84 34.92 30.01 32.17 37.23 34.67 34.92 35.05 34.57 28.71 25.88 26.91 28.21 28.02 40.96 40.54 39.95 39.13 40.05 41.95 41.54 37.12 34.95 34.97 35.64 36.02 36.33 37.03 37.20 34.01 33.06 32.29 32.79 33.25 32.53 32.78 33.49 31.66 31.60 32.78 32.40 31.74 31.40 31.31
38.14 33.70 28.28 29.21 30.78 32.51 29.98 33.33 33.78 33.51 32.67 27.91 24.76 27.95 38.99 40.05 40.12 41.04 37.48 32.22 34.69 34.58 34.50 34.32 34.15 33.56 33.55 34.09 34.42 35.41 35.83 34.52 32.54 31.76 31.08 31.07 30.85 29.69 32.80 32.69 32.09 31.16 31.42 30.58
39.51 33.90 30.80 26.21 28.82 30.50 28.73 30.02 30.45 29.28 23.94 25.78 26.08 30.47 34.88 35.39 32.57 28.30 30.38 30.47 30.44 30.48 31.02 31.49 31.96 32.46 32.80 32.95 33.08 33.27 33.93 34.69 34.26 31.06 30.27 30.58 30.72 32.01 32.63 33.24 31.86 30.66 31.26 30.03
33.30 25.20 28.45 27.35 27.51 27.69 26.25 25.72 26.18 25.12 27.01 23.30 26.21 27.74 29.12 25.36 25.36 28.83 28.74 28.47 28.02 28.37 29.13 29.74 29.96 31.10 31.65 31.59 32.15 32.40 32.98 32.24 32.10 31.74 31.58 30.94 31.51 30.98 30.72 31.36 31.25 29.64 29.99 29.94
28.66 21.13 23.51 19.45 24.56 24.14 21.42 23.38 24.47 25.46 25.73 26.40 28.33 26.88 25.23 26.31 26.92 27.27 27.50 26.92 26.32 27.39 28.82 29.99 30.21 31.28 31.17 31.01 31.10 31.07 31.72 30.88 30.84 30.64 30.31 31.79 32.24 29.55 29.75 30.25 29.72 28.99 28.93 29.09
22.03 18.92 10.61 14.50 21.76 18.24 12.12 18.42 22.25 22.82 23.04 21.88 20.01 21.45 24.34 23.08 23.86 25.03 26.13 27.41 25.64 25.99 28.07 29.60 29.64 31.24 30.64 31.28 30.90 30.30 30.72 30.62 30.55 30.61 30.64 29.91 30.90 30.60 30.10 29.76 28.70 28.60 27.97 28.15
20.20 14.79 9.23 7.19 5.84 -1.01 18.98 25.72 22.78 22.00 20.98 21.43 21.17 23.86 23.26 23.40 24.86 25.80 28.70 25.03 24.74 25.50 26.51 28.37 29.28 29.97 30.52 31.80 31.29 31.13 30.27 29.69 29.64 29.26 29.85 28.79 28.46 29.69 28.67 27.59 27.97 27.99 27.64 26.58
24.09 20.26 4.96 4.04 2.16 14.64 20.80 18.84 16.11 13.59 13.77 19.37 19.16 23.45 25.22 24.99 23.23 21.51 27.16 27.07 26.05 26.08 27.37 28.37 28.55 28.94 29.78 30.02 30.32 29.67 28.69 29.59 29.50 28.41 27.30 26.14 26.06 26.80 26.44 26.40 26.06 26.53 26.44 25.86
20.97 22.50 16.21 -1.33 2.86 -1.38 13.21 19.12 22.70 20.80 7.62 16.97 18.01 18.93 20.65 22.72 12.63 17.72 24.90 26.59 25.87 27.02 27.51 27.12 27.48 27.70 26.97 26.96 28.14 26.33 26.89 27.62 28.33 29.12 27.59 24.93 23.00 22.65 24.37 24.84 24.96 25.86 26.20 25.73
-0.84 -3.91 -0.65 -5.66 -6.56 3.89 15.13 20.26 21.29 4.04 10.13 15.27 19.15 22.06 22.33 19.08 18.86 22.53 24.88 22.69 23.39 24.47 25.13 25.94 25.32 24.51 24.56 25.63 25.10 24.22 24.82 25.71 27.01 25.65 26.44 26.38 24.91 21.98 22.94 23.27 24.25 24.84 24.75 23.95
7.70 -1.38 -4.16 -9.04 -11.93 -3.15 18.10 19.05 10.03 16.96 20.17 18.70 21.69 22.95 21.36 22.38 22.84 22.66 21.86 21.33 21.63 21.27 21.31 22.42 22.01 21.70 22.97 23.79 22.59 21.16 22.20 23.05 21.21 21.74 24.94 26.36 26.36 24.15 23.37 22.77 22.24 21.99 21.74 21.18
8.20 11.51 4.12 7.19 7.37 19.45 19.03 20.82 25.47 24.88 21.11 22.78 22.01 23.60 22.16 21.51 20.62 20.81 19.53 19.97 20.44 19.88 20.25 20.12 18.08 19.22 20.10 20.12 19.84 18.28 18.41 19.26 19.82 20.30 19.68 21.01 24.43 24.19 22.76 21.96 21.14 20.86 20.69 19.84
15.58 19.72 13.86 15.17 19.37 20.73 23.61 25.65 25.07 24.81 24.43 25.36 24.03 21.79 20.82 18.64 18.92 18.69 19.03 19.03 18.57 18.27 17.85 17.99 16.57 15.42 14.89 16.16 16.68 15.43 16.11 16.55 15.76 14.36 15.14 17.06 19.42 23.07 22.89 21.59 21.65 20.84 19.66 19.68
18.88 17.57 14.01 15.71 20.38 22.12 23.34 24.27 24.87 25.18 24.47 21.55 21.09 19.87 18.61 17.28 16.79 17.58 16.36 15.88 16.36 16.53 16.27 15.96 14.68 13.67 12.80 13.66 12.55 11.61 12.00 11.28 10.26 10.66 11.78 13.19 15.64 20.10 22.58 20.95 21.51 20.93 22.11 22.14
21.02 19.04 16.04 14.57 22.31 21.40 22.34 25.48 23.20 20.79 19.60 18.08 16.29 15.61 17.13 16.92 15.16 14.89 13.29 14.25 13.86 13.16 13.64 12.47 11.69 10.73 9.85 9.35 8.73 8.58 7.49 6.59 5.86 6.18 7.98 9.71 12.23 15.33 19.99 21.05 20.74 25.38 26.21 26.00

GFSCGP_sfc_wetblb_033.txt.gz
Wetbulb
37.99 33.99 32.23 36.45 35.61 34.61 31.54 30.58 29.81 32.65 37.66 34.28 36.71 36.71 38.36 40.89 40.11 41.24 42.65 42.92 43.27 43.37 46.24 46.78 45.82 45.57 44.03 43.56 43.39 43.28 42.45 44.40 45.20 45.32 44.01 42.89 42.46 43.33 42.81 43.65 42.94 41.85 41.78 40.20
33.86 30.90 36.37 36.33 35.06 34.26 33.22 31.73 31.57 34.96 37.29 33.62 33.78 34.96 38.97 40.78 41.37 42.33 42.56 43.03 42.17 42.62 43.69 44.39 44.54 44.17 43.42 43.92 42.92 43.12 42.46 42.69 43.69 45.00 45.10 45.67 44.88 44.14 43.70 42.73 41.80 41.41 41.06 40.18
33.87 35.64 37.51 35.87 33.47 33.27 30.89 30.35 32.41 31.47 33.22 33.67 31.75 31.97 33.85 37.96 38.77 40.60 42.40 42.55 42.68 42.58 43.12 43.52 43.12 43.34 43.28 42.14 42.39 42.37 42.75 42.15 42.59 44.14 43.98 38.37 40.33 38.84 39.78 39.61 39.54 39.41 39.91 39.52
32.79 36.26 35.64 32.29 32.31 33.86 30.65 34.39 34.08 32.10 29.64 26.93 32.61 25.98 34.16 40.16 39.62 40.47 39.58 39.43 39.95 40.42 41.18 41.57 42.01 42.62 42.46 42.66 42.62 42.09 42.26 41.92 41.76 42.88 41.87 40.96 41.87 39.51 40.52 41.31 40.41 39.37 39.03 38.69
33.08 32.31 31.82 31.90 33.92 34.47 32.86 33.79 32.35 31.10 28.62 27.43 27.36 25.98 30.31 33.58 36.82 37.70 39.85 41.00 40.69 41.48 40.92 41.43 41.38 41.34 41.71 41.97 42.03 41.22 41.30 41.47 41.70 41.48 42.40 40.81 40.98 42.20 40.53 41.44 39.34 38.79 37.78 38.42
33.07 34.12 34.74 35.05 34.33 35.09 34.37 31.80 30.65 28.18 27.54 22.28 28.56 28.48 29.28 32.15 35.06 36.98 38.69 40.57 39.64 39.95 39.77 40.33 40.29 40.00 41.33 40.92 40.16 40.09 39.69 40.07 40.48 40.26 41.08 40.50 40.32 41.09 37.41 37.96 37.37 37.17 36.97 36.70
30.52 32.05 33.98 35.64 32.22 32.85 32.94 29.66 24.27 22.75 21.18 25.60 28.08 25.92 33.05 35.65 39.32 37.25 38.19 39.04 39.09 38.87 38.48 39.41 42.21 42.05 42.52 41.69 40.08 39.31 38.20 38.14 38.67 38.63 39.43 40.33 39.71 40.46 37.53 37.02 37.48 35.87 35.60 35.28
26.33 29.58 32.32 34.64 35.96 34.14 31.54 32.22 27.35 19.49 20.27 28.41 25.89 25.32 32.23 37.46 38.00 37.81 37.34 37.67 38.49 41.29 39.67 39.74 40.30 39.27 39.94 38.98 39.36 37.97 36.67 36.27 36.70 36.97 37.86 38.88 38.87 39.59 38.19 36.90 37.80 36.75 36.55 36.64
32.25 28.75 31.33 33.50 34.45 36.28 30.76 29.18 33.37 27.80 15.94 19.62 30.10 34.23 37.69 35.67 36.74 37.83 36.69 37.58 38.25 37.91 36.77 35.86 35.94 36.39 36.67 36.63 36.81 36.18 35.56 35.41 35.65 35.79 36.21 36.68 37.16 37.92 37.42 36.59 36.69 36.55 36.98 36.61
34.13 29.72 34.39 32.95 32.21 32.37 32.66 33.74 27.77 26.81 20.71 20.91 27.70 29.36 31.30 35.03 36.66 36.27 36.30 33.02 33.59 34.26 34.11 34.22 34.32 34.19 34.63 35.07 35.60 36.44 36.55 35.29 34.99 34.83 35.05 36.07 36.07 36.75 37.00 34.80 34.36 35.19 35.48 35.54
37.81 33.07 31.78 33.58 31.64 32.37 33.62 29.99 30.04 29.36 28.37 24.22 22.83 27.47 35.52 34.68 32.97 31.55 33.25 34.66 32.71 32.22 32.39 32.91 33.77 34.37 34.33 34.61 34.70 34.68 34.84 35.02 34.64 35.32 35.34 34.62 35.02 35.02 35.37 33.91 33.86 34.24 34.48 33.84
39.21 35.20 30.81 32.52 35.47 35.81 34.82 33.93 33.54 28.13 26.18 28.07 28.26 28.06 39.78 36.81 33.94 31.68 30.67 30.36 30.41 30.79 30.94 31.61 32.30 32.98 33.28 33.16 33.47 33.56 33.74 34.29 33.83 33.82 34.26 33.86 34.47 33.43 33.22 33.43 33.54 33.30 32.98 32.94
38.69 33.47 27.99 26.73 29.56 33.40 31.70 34.13 33.41 30.78 30.81 26.87 24.81 27.77 36.23 35.94 35.11 29.50 27.87 28.05 28.90 29.56 29.74 30.59 31.17 31.60 32.61 32.50 32.68 32.72 32.87 33.46 33.28 32.75 32.84 33.20 32.76 32.65 32.67 33.27 33.16 32.33 32.94 32.48
39.52 33.80 30.77 25.25 28.37 29.27 28.26 27.84 28.04 27.02 22.68 23.47 23.67 25.71 30.00 31.77 27.19 28.14 27.86 28.53 28.38 28.44 28.85 29.79 30.66 31.00 32.58 32.34 32.08 32.05 32.03 32.65 32.19 31.54 31.67 31.86 31.93 32.08 32.73 33.53 33.51 32.65 32.65 32.09
32.85 27.81 27.82 31.26 28.12 26.01 25.15 24.83 25.16 23.28 24.37 20.08 23.04 23.99 28.16 25.15 24.42 25.57 26.94 27.90 28.14 26.70 26.79 27.97 29.51 30.00 31.32 31.44 31.78 32.23 32.02 31.55 31.30 30.55 30.63 30.83 31.20 31.34 31.75 31.86 32.63 32.79 32.03 31.80
29.15 22.43 23.49 16.80 24.68 25.36 21.85 21.89 22.03 22.29 22.43 21.85 22.92 22.38 25.06 26.21 25.92 24.88 25.05 25.32 27.02 25.63 25.91 26.66 27.96 28.93 28.85 29.60 30.08 30.55 30.51 30.83 30.53 29.83 29.84 30.52 29.80 29.60 29.98 30.65 31.06 31.23 30.78 30.98
22.95 21.48 12.99 15.74 21.66 16.10 9.94 18.02 22.75 21.84 20.41 20.31 18.09 20.80 23.36 22.49 23.67 24.18 23.69 24.47 26.29 25.12 25.65 25.83 26.43 27.42 27.40 27.90 29.04 28.84 29.33 28.82 28.62 29.54 30.00 30.32 28.52 27.05 27.89 28.88 29.05 29.34 29.82 29.76
22.65 15.62 9.58 2.72 2.00 -3.69 18.09 21.22 23.04 22.23 21.04 20.24 19.46 19.36 21.77 22.63 25.17 24.62 25.46 24.75 24.93 25.41 25.71 25.80 26.08 26.71 26.89 27.38 26.79 27.36 27.49 26.19 27.13 27.30 28.95 29.80 27.44 25.91 26.27 27.03 27.48 28.01 28.80 28.95
23.88 19.78 1.69 -0.30 -4.77 9.69 18.29 18.25 16.01 12.76 11.80 18.50 14.70 16.76 21.02 23.88 23.86 21.90 25.05 25.55 24.81 25.41 25.75 26.24 26.60 26.62 26.42 25.89 25.62 25.35 24.49 24.56 24.74 25.46 27.27 24.43 23.09 25.49 26.24 25.80 26.74 26.84 27.41 27.82
21.34 22.07 13.21 -4.80 -2.25 -5.48 12.50 17.77 21.22 19.00 7.17 16.98 17.05 17.33 19.18 22.08 13.66 18.58 23.46 24.62 24.36 24.66 24.67 24.28 25.40 24.92 24.17 23.82 24.04 23.38 22.55 21.96 21.42 24.58 23.23 21.64 22.79 25.60 26.19 25.47 25.98 27.21 27.28 27.00
-1.68 -0.10 9.94 6.00 5.88 5.59 14.52 19.74 20.62 3.77 9.04 15.64 16.27 19.89 20.10 18.76 21.12 24.35 24.58 23.60 23.39 22.87 23.02 23.54 22.65 21.93 21.98 23.01 22.14 21.61 21.14 19.59 21.18 21.81 20.04 20.25 21.55 22.33 22.17 25.15 25.63 25.78 25.67 25.59
8.28 -1.90 -7.29 -13.09 -12.28 -2.98 15.79 18.14 10.98 16.19 21.30 18.57 21.87 21.69 20.43 22.53 23.73 24.46 23.82 23.15 22.70 21.06 21.75 22.27 20.32 20.37 21.28 20.88 20.14 18.91 17.92 19.80 19.32 17.84 17.96 17.19 17.27 17.67 19.56 20.84 23.93 24.56 24.13 23.85
7.87 11.35 5.13 7.30 6.49 17.76 18.78 19.38 25.20 25.15 20.89 23.22 22.85 23.67 23.09 22.11 22.69 22.51 21.23 20.81 20.77 20.50 20.82 20.77 18.46 18.18 18.98 19.15 18.26 15.12 16.78 17.23 16.01 14.06 12.43 12.64 13.79 14.68 15.69 16.75 19.59 22.67 23.32 22.08
14.45 18.55 13.78 15.07 19.11 20.43 23.26 25.12 25.43 24.80 24.25 25.31 24.88 22.71 21.44 19.74 20.42 19.64 18.76 18.91 18.92 18.95 17.99 17.96 16.64 15.48 15.17 16.65 16.56 14.62 14.70 14.30 10.84 9.01 9.03 9.70 9.64 10.96 12.70 14.97 17.94 22.18 21.95 21.68
19.32 17.45 13.42 15.22 20.37 22.00 23.23 24.16 24.85 24.87 24.04 21.39 20.21 19.76 18.48 17.52 16.56 16.95 15.98 15.55 15.57 15.33 15.10 14.65 13.35 12.89 12.44 13.28 12.31 11.85 11.03 9.42 7.16 6.59 6.86 6.59 7.20 7.62 9.66 12.97 15.47 19.10 22.70 23.11
21.25 18.95 16.11 14.37 21.98 21.14 22.19 24.82 21.89 20.41 18.14 16.07 15.25 14.63 15.98 15.24 13.47 13.36 11.74 12.47 11.68 10.76 10.54 8.88 8.50 7.87 7.31 7.09 6.57 6.66 6.64 5.57 3.51 2.74 3.30 3.76 4.41 5.41 7.09 8.45 10.20 18.16 22.31 26.54